User: anonymous   Login
Location: Fountain Hills
(33.6120°N, 111.7170°W)
Time: 19:34:12
(UTC-07:00)
Language:

Hamsat - Orbit

View from above orbital plane
View from above orbital plane
View from above satellite
View from above satellite

Ground track
Ground track

The orbit data is extracted from the following two-line orbital elements,

1 28650U 05017B   16181.90633978  .00000315  00000-0  39625-4 0  9994
2 28650  97.6084 163.2376 0022736 214.1644 145.8111 14.88311527603760
Epoch (UTC): 29 June 2016 21:45:07
Eccentricity: 0.0022736
inclination: 97.6084°
perigee height: 587 km
apogee height: 619 km
right ascension of ascending node: 163.2376°
argument of perigee: 214.1644°
revolutions per day: 14.88311527
mean anomaly at epoch: 145.8111°
orbit number at epoch: 60376

The dashed part of the orbit path shows where the satellite is in the earth's shadow,  

DLR